Date String (YYYY-MM-DD hh:mm:ss) UTC,Instrument flags,Ambient pressure (hPa),Sample flow (lpm),Bypass flow (lpm),Sample temperature (°C),Ambient temperature (°C),ASC tube jacket temperature (°C),LED temperature (°C),Box temperature (°C),Sample RH (%),Span deviation,Mass concentration (μg/m³),Mass concentration (μg/m³),Mass concentration (μg/m³)
DateTimeUTC,F1_M11,P_M11,Q1_M11,Q2_M11,T1_M11,T2_M11,T3_M11,T4_M11,T5_M11,U1_M11,ZSPAN_M11,X0_M11,X2_M11,X1_M11
2021-10-07 08:00:00,,0826.9,4.99,0.00,30.1,29.1,00.0,39.1,31.9,17.1,0000.0,0012.58,0003.34,0002.24
2021-10-07 08:01:00,,0826.9,5.01,0.00,30.1,29.1,00.0,39.1,31.9,17.1,0000.0,0013.09,0003.38,0002.23
2021-10-07 08:02:00,,0826.9,4.98,0.00,30.1,29.1,00.0,39.1,31.9,17.0,0000.0,0013.25,0003.38,0002.23
2021-10-07 08:03:00,,0827.0,5.01,0.00,30.1,29.1,00.0,39.1,31.9,17.0,0000.0,0013.25,0003.38,0002.23
2021-10-07 08:04:00,,0826.9,5.00,0.00,30.1,29.1,00.0,39.1,31.9,17.0,0000.0,0013.96,0003.40,0002.24
2021-10-07 08:05:00,,0827.1,5.01,0.00,30.1,29.2,00.0,39.1,31.9,17.0,0000.0,0014.13,0003.42,0002.25
2021-10-07 08:06:00,,0827.0,5.00,0.00,30.1,29.2,00.0,39.2,31.9,16.9,0000.0,0014.34,0003.40,0002.25
2021-10-07 08:07:00,,0827.2,4.99,0.00,30.1,29.2,00.0,39.2,31.9,16.9,0000.0,0013.64,0003.37,0002.26
2021-10-07 08:08:00,,0827.1,5.02,0.00,30.2,29.2,00.0,39.2,31.9,16.9,0000.0,0012.08,0003.36,0002.28
2021-10-07 08:09:00,,0827.0,4.98,0.00,30.2,29.2,00.0,39.2,32.0,16.9,0000.0,0012.10,0003.32,0002.29
2021-10-07 08:10:00,,0827.1,5.02,0.00,30.2,29.2,00.0,39.2,32.0,16.9,0000.0,0012.93,0003.34,0002.31
2021-10-07 08:11:00,,0827.1,5.00,0.00,30.2,29.2,00.0,39.2,32.0,16.9,0000.0,0012.58,0003.33,0002.32
2021-10-07 08:12:00,,0827.0,4.99,0.00,30.2,29.2,00.0,39.2,32.0,16.9,0000.0,0013.01,0003.31,0002.33
2021-10-07 08:13:00,,0827.0,5.00,0.00,30.2,29.2,00.0,39.3,32.0,16.8,0000.0,0012.08,0003.29,0002.34
2021-10-07 08:14:00,,0827.1,4.99,0.00,30.2,29.2,00.0,39.3,32.0,16.8,0000.0,0011.52,0003.28,0002.33
2021-10-07 08:15:00,,0827.0,5.00,0.00,30.2,29.2,00.0,39.3,31.9,16.8,0000.0,0011.31,0003.26,0002.32
2021-10-07 08:16:00,,0827.0,5.00,0.00,30.2,29.2,00.0,39.3,31.9,16.9,0000.0,0011.15,0003.21,0002.31
2021-10-07 08:17:00,,0827.0,5.00,0.00,30.2,29.2,00.0,39.3,31.9,16.8,0000.0,0010.76,0003.19,0002.29
2021-10-07 08:18:00,,0827.0,5.00,0.00,30.2,29.2,00.0,39.3,31.9,16.8,0000.0,0010.43,0003.19,0002.29
2021-10-07 08:19:00,,0827.1,5.00,0.00,30.1,28.7,00.0,39.3,31.7,16.8,0000.0,0010.60,0003.16,0002.27
2021-10-07 08:20:00,,0827.1,5.01,0.00,30.0,26.5,00.0,39.2,31.2,17.0,0000.0,0009.48,0003.12,0002.25
2021-10-07 08:21:00,,0827.2,5.00,0.00,29.8,26.0,00.0,39.2,31.0,17.1,0000.0,0008.50,0003.06,0002.24
2021-10-07 08:22:00,,0827.5,5.00,0.00,29.7,26.3,00.0,39.1,31.1,17.2,0000.0,0008.32,0003.03,0002.24
2021-10-07 08:23:00,,0827.4,5.00,0.00,29.7,26.8,00.0,39.0,31.1,17.2,0000.0,0007.99,0002.99,0002.22
2021-10-07 08:24:00,,0827.3,4.99,0.00,29.6,27.2,00.0,39.0,31.2,17.2,0000.0,0008.78,0003.02,0002.22
2021-10-07 08:25:00,,0827.2,4.99,0.00,29.6,27.5,00.0,39.0,31.2,17.2,0000.0,0009.39,0003.02,0002.22
2021-10-07 08:26:00,,0827.2,5.01,0.00,29.6,27.7,00.0,38.9,31.3,17.2,0000.0,0008.90,0003.03,0002.21
2021-10-07 08:27:00,,0827.1,4.99,0.00,29.6,28.0,00.0,38.9,31.3,17.3,0000.0,0008.70,0003.01,0002.19
2021-10-07 08:28:00,,0827.1,4.99,0.00,29.6,28.1,00.0,38.9,31.3,17.2,0000.0,0008.79,0003.07,0002.19
2021-10-07 08:29:00,,0827.2,4.99,0.00,29.6,28.2,00.0,38.9,31.4,17.1,0000.0,0008.84,0003.09,0002.20
2021-10-07 08:30:00,,0827.1,5.00,0.00,29.7,28.4,00.0,38.9,31.4,17.1,0000.0,0008.64,0003.12,0002.21
2021-10-07 08:31:00,,0827.1,5.01,0.00,29.7,28.4,00.0,38.8,31.4,17.1,0000.0,0008.32,0003.16,0002.22
2021-10-07 08:32:00,,0827.1,5.00,0.00,29.7,28.5,00.0,38.8,31.4,17.0,0000.0,0008.37,0003.18,0002.22
2021-10-07 08:33:00,,0827.4,5.00,0.00,29.7,28.5,00.0,38.8,31.5,16.9,0000.0,0008.39,0003.18,0002.24
2021-10-07 08:34:00,,0827.3,5.02,0.00,29.7,28.6,00.0,38.8,31.5,16.9,0000.0,0008.60,0003.22,0002.24
2021-10-07 08:35:00,,0827.3,4.99,0.00,29.8,28.6,00.0,38.9,31.5,17.0,0000.0,0008.03,0003.25,0002.25
2021-10-07 08:36:00,,0827.4,5.00,0.00,29.8,28.7,00.0,38.9,31.6,17.0,0000.0,0007.39,0003.21,0002.23
2021-10-07 08:37:00,,0827.4,5.01,0.00,29.8,28.7,00.0,38.9,31.5,17.0,0000.0,0007.31,0003.20,0002.23
2021-10-07 08:38:00,,0827.3,5.00,0.00,29.8,28.7,00.0,38.9,31.5,17.0,0000.0,0007.31,0003.22,0002.25
2021-10-07 08:39:00,,0827.2,5.00,0.00,29.8,28.7,00.0,38.9,31.5,17.0,0000.0,0007.62,0003.23,0002.26
2021-10-07 08:40:00,,0827.2,4.99,0.00,29.7,28.7,00.0,38.9,31.5,17.1,0000.0,0008.76,0003.21,0002.23
2021-10-07 08:41:00,,0827.0,5.00,0.00,29.7,28.7,00.0,38.9,31.5,17.2,0000.0,0008.87,0003.19,0002.21
2021-10-07 08:42:00,,0827.0,5.01,0.00,29.7,28.7,00.0,38.9,31.5,17.1,0000.0,0009.45,0003.20,0002.20
2021-10-07 08:43:00,,0827.0,5.01,0.00,29.7,28.7,00.0,38.9,31.4,16.9,0000.0,0010.03,0003.20,0002.20
2021-10-07 08:44:00,,0827.0,5.01,0.00,29.7,28.7,00.0,38.9,31.4,16.9,0000.0,0010.35,0003.24,0002.18
2021-10-07 08:45:00,,0827.0,5.00,0.00,29.7,28.8,00.0,38.9,31.5,16.8,0000.0,0010.49,0003.23,0002.18
2021-10-07 08:46:00,,0827.0,5.01,0.00,29.7,28.8,00.0,38.9,31.5,16.8,0000.0,0010.65,0003.22,0002.18
2021-10-07 08:47:00,,0827.0,5.01,0.00,29.8,28.8,00.0,38.9,31.5,16.8,0000.0,0010.61,0003.25,0002.19
2021-10-07 08:48:00,,0827.0,4.99,0.00,29.8,28.8,00.0,38.9,31.5,16.8,0000.0,0011.23,0003.27,0002.20
2021-10-07 08:49:00,,0827.0,5.01,0.00,29.8,28.8,00.0,38.9,31.5,16.8,0000.0,0011.50,0003.27,0002.20
2021-10-07 08:50:00,,0827.0,4.99,0.00,29.8,28.9,00.0,38.9,31.6,16.7,0000.0,0011.65,0003.28,0002.18
2021-10-07 08:51:00,,0827.1,5.01,0.00,29.8,28.9,00.0,38.9,31.6,16.7,0000.0,0010.58,0003.29,0002.21
2021-10-07 08:52:00,,0827.5,5.00,0.00,29.8,28.9,00.0,38.9,31.6,16.7,0000.0,0010.42,0003.27,0002.22
2021-10-07 08:53:00,,0827.3,5.00,0.00,29.9,28.9,00.0,38.9,31.6,16.8,0000.0,0009.90,0003.26,0002.23
2021-10-07 08:54:00,,0827.5,5.00,0.00,29.9,28.9,00.0,38.9,31.6,16.8,0000.0,0009.51,0003.24,0002.22
2021-10-07 08:55:00,,0827.2,5.00,0.00,29.9,29.0,00.0,39.0,31.7,16.8,0000.0,0009.20,0003.18,0002.21
2021-10-07 08:56:00,,0827.1,5.00,0.00,29.9,28.9,00.0,39.0,31.7,16.8,0000.0,0008.88,0003.14,0002.18
2021-10-07 08:57:00,,0827.1,5.00,0.00,29.9,28.9,00.0,39.0,31.7,16.9,0000.0,0008.55,0003.11,0002.17
2021-10-07 08:58:00,,0827.2,5.01,0.00,29.9,28.9,00.0,39.0,31.6,17.0,0000.0,0008.42,0003.11,0002.16
2021-10-07 08:59:00,,0827.4,5.00,0.00,29.8,28.9,00.0,39.0,31.6,16.8,0000.0,0007.87,0003.10,0002.14
